| time (UTC) | temp F | wind direction | speed knots | gust knots | rain 1hr in | rain 24hr in | rain mn in | humidity % | barometer mb |
| 20260508030028 | 47 | 351 | 0.0 | 0.9 | 0.00 | 0.01 | 0.00 | 60 | 1007.1 |
| 20260508025511 | 47 | 0 | 0.0 | 0.9 | 0.00 | 0.01 | 0.00 | 61 | 1007.2 |
| 20260508025015 | 47 | 0 | 0.0 | 0.9 | 0.00 | 0.01 | 0.00 | 59 | 1007.3 |
| 20260508024529 | 47 | 0 | 0.0 | 0.0 | 0.00 | 0.01 | 0.00 | 58 | 1007.4 |
| 20260508024011 | 47 | 0 | 0.0 | 0.0 | 0.00 | 0.01 | 0.00 | 57 | 1007.3 |
| 20260508023509 | 47 | 0 | 0.0 | 0.9 | 0.00 | 0.01 | 0.00 | 57 | 1007.2 |
| 20260508023027 | 48 | 0 | 0.0 | 0.9 | 0.00 | 0.01 | 0.00 | 56 | 1007.2 |
| 20260508022510 | 48 | 0 | 0.0 | 0.9 | 0.00 | 0.01 | 0.00 | 56 | 1007.2 |
| 20260508022011 | 48 | 0 | 0.0 | 0.0 | 0.00 | 0.01 | 0.00 | 54 | 1007.0 |
| 20260508021527 | 48 | 0 | 0.0 | 0.9 | 0.00 | 0.01 | 0.00 | 53 | 1006.9 |
| 20260508021009 | 48 | 0 | 0.0 | 1.7 | 0.00 | 0.01 | 0.00 | 53 | 1006.8 |
| 20260508020512 | 48 | 0 | 0.0 | 1.7 | 0.00 | 0.01 | 0.00 | 53 | 1006.9 |
| 20260508020028 | 48 | 0 | 0.0 | 0.9 | 0.00 | 0.01 | 0.00 | 53 | 1006.8 |
| 20260508015511 | 48 | 0 | 0.0 | 0.9 | 0.00 | 0.01 | 0.00 | 58 | 1006.7 |
| 20260508015011 | 48 | 0 | 0.0 | 1.7 | 0.00 | 0.01 | 0.00 | 60 | 1006.4 |
| 20260508014526 | 49 | 0 | 0.0 | 1.7 | 0.00 | 0.01 | 0.00 | 59 | 1006.5 |
| 20260508014010 | 49 | 0 | 0.0 | 0.0 | 0.00 | 0.01 | 0.00 | 57 | 1006.1 |
| 20260508013508 | 49 | 0 | 0.0 | 0.0 | 0.00 | 0.01 | 0.00 | 55 | 1006.2 |
| 20260508013027 | 49 | 0 | 0.0 | 0.0 | 0.00 | 0.01 | 0.00 | 55 | 1006.1 |
| 20260508012510 | 49 | 0 | 0.0 | 0.0 | 0.00 | 0.01 | 0.00 | 54 | 1006.0 |
| 20260508012010 | 49 | 0 | 0.0 | 0.0 | 0.00 | 0.01 | 0.00 | 54 | 1005.9 |
| 20260508011527 | 50 | 0 | 0.0 | 0.0 | 0.00 | 0.01 | 0.00 | 54 | 1005.8 |
| 20260508011011 | 50 | 0 | 0.0 | 0.0 | 0.00 | 0.01 | 0.00 | 53 | 1005.8 |
| 20260508010512 | 50 | 0 | 0.0 | 0.0 | 0.00 | 0.01 | 0.00 | 53 | 1005.7 |
| 20260508010031 | 50 | 0 | 0.0 | 0.0 | 0.00 | 0.01 | 0.00 | 52 | 1005.8 |
| 20260508005511 | 51 | 0 | 0.0 | 0.0 | 0.00 | 0.02 | 0.00 | 51 | 1005.7 |
| 20260508005010 | 51 | 0 | 0.0 | 0.0 | 0.00 | 0.02 | 0.00 | 50 | 1005.7 |
| 20260508004532 | 52 | 0 | 0.0 | 0.0 | 0.00 | 0.02 | 0.00 | 48 | 1005.6 |
| 20260508003511 | 53 | 0 | 0.0 | 0.0 | 0.00 | 0.02 | 0.00 | 45 | 1005.5 |
| 20260508003027 | 53 | 0 | 0.0 | 0.0 | 0.00 | 0.02 | 0.00 | 43 | 1005.6 |
| 20260508002508 | 54 | 0 | 0.0 | 0.9 | 0.00 | 0.02 | 0.00 | 42 | 1005.4 |
| 20260508002011 | 54 | 0 | 0.0 | 1.7 | 0.00 | 0.02 | 0.00 | 42 | 1005.3 |
| 20260508001527 | 55 | 0 | 0.0 | 1.7 | 0.00 | 0.02 | 0.00 | 40 | 1005.2 |
| 20260508001010 | 55 | 0 | 0.0 | 1.7 | 0.00 | 0.02 | 0.00 | 39 | 1005.2 |
| 20260508000514 | 56 | 0 | 0.0 | 0.9 | 0.00 | 0.02 | 0.00 | 39 | 1005.1 |
| 20260508000031 | 56 | 0 | 0.0 | 1.7 | 0.00 | 0.02 | 0.00 | 38 | 1005.1 |
| 20260507235512 | 56 | 0 | 0.0 | 2.6 | 0.00 | 0.02 | 0.00 | 36 | 1005.0 |
| 20260507235009 | 57 | 242 | 0.0 | 2.6 | 0.00 | 0.02 | 0.00 | 35 | 1005.0 |
| 20260507234542 | 57 | 0 | 0.0 | 3.5 | 0.00 | 0.02 | 0.00 | 35 | 1005.0 |
| 20260507234011 | 57 | 246 | 0.0 | 3.5 | 0.00 | 0.02 | 0.00 | 34 | 1005.0 |
| 20260507233507 | 57 | 12 | 0.9 | 2.6 | 0.00 | 0.02 | 0.00 | 34 | 1004.9 |
| 20260507233028 | 58 | 217 | 0.0 | 5.2 | 0.00 | 0.02 | 0.00 | 35 | 1005.0 |
| 20260507232509 | 58 | 0 | 0.0 | 7.0 | 0.00 | 0.02 | 0.00 | 34 | 1005.0 |
| 20260507232009 | 58 | 184 | 1.7 | 7.0 | 0.00 | 0.02 | 0.00 | 32 | 1004.9 |
| 20260507231527 | 58 | 220 | 1.7 | 7.0 | 0.00 | 0.02 | 0.00 | 33 | 1004.9 |
| 20260507231011 | 59 | 0 | 0.9 | 2.6 | 0.00 | 0.02 | 0.00 | 34 | 1004.9 |
| 20260507230510 | 59 | 0 | 0.0 | 5.2 | 0.00 | 0.02 | 0.00 | 34 | 1004.7 |
| 20260507230030 | 59 | 242 | 0.9 | 5.2 | 0.00 | 0.02 | 0.00 | 33 | 1004.8 |
| 20260507225508 | 59 | 63 | 0.9 | 5.2 | 0.00 | 0.04 | 0.00 | 33 | 1004.8 |
| 20260507225008 | 59 | 42 | 0.9 | 5.2 | 0.00 | 0.04 | 0.00 | 32 | 1004.7 |
| 20260507224529 | 59 | 193 | 1.7 | 5.2 | 0.00 | 0.04 | 0.00 | 32 | 1004.7 |
| 20260507224009 | 60 | 94 | 1.7 | 4.3 | 0.00 | 0.04 | 0.00 | 32 | 1004.6 |
| 20260507223509 | 60 | 205 | 1.7 | 4.3 | 0.00 | 0.04 | 0.00 | 31 | 1004.4 |
| 20260507223029 | 60 | 101 | 0.9 | 6.1 | 0.00 | 0.04 | 0.00 | 32 | 1004.3 |
| 20260507222510 | 61 | 165 | 0.9 | 6.1 | 0.00 | 0.04 | 0.00 | 30 | 1004.3 |
| 20260507222008 | 61 | 249 | 1.7 | 5.2 | 0.00 | 0.04 | 0.00 | 30 | 1004.2 |
| 20260507221533 | 61 | 192 | 1.7 | 7.8 | 0.00 | 0.04 | 0.00 | 30 | 1004.3 |
| 20260507221008 | 62 | 0 | 1.7 | 7.8 | 0.00 | 0.04 | 0.00 | 30 | 1004.1 |
| 20260507220509 | 62 | 246 | 1.7 | 8.7 | 0.00 | 0.04 | 0.00 | 31 | 1004.1 |
| 20260507220034 | 62 | 79 | 1.7 | 8.7 | 0.00 | 0.04 | 0.00 | 29 | 1004.1 |
| 20260507215511 | 63 | 276 | 2.6 | 7.8 | 0.00 | 0.14 | 0.00 | 29 | 1004.2 |
| 20260507215010 | 64 | 246 | 2.6 | 7.8 | 0.00 | 0.14 | 0.00 | 28 | 1004.4 |
| 20260507214527 | 64 | 322 | 0.9 | 5.2 | 0.00 | 0.14 | 0.00 | 32 | 1004.3 |
| 20260507214009 | 64 | 213 | 1.7 | 5.2 | 0.00 | 0.14 | 0.00 | 30 | 1004.2 |
| 20260507213510 | 64 | 252 | 1.7 | 5.2 | 0.00 | 0.14 | 0.00 | 29 | 1004.2 |
| 20260507213032 | 64 | 214 | 0.9 | 7.8 | 0.00 | 0.14 | 0.00 | 30 | 1004.2 |
| 20260507212511 | 64 | 254 | 2.6 | 7.8 | 0.00 | 0.14 | 0.00 | 31 | 1004.3 |
| 20260507212010 | 64 | 34 | 2.6 | 9.6 | 0.00 | 0.14 | 0.00 | 30 | 1004.3 |
| 20260507211533 | 63 | 184 | 1.7 | 9.6 | 0.00 | 0.14 | 0.00 | 31 | 1004.2 |
| 20260507211010 | 64 | 230 | 2.6 | 7.8 | 0.00 | 0.14 | 0.00 | 30 | 1004.2 |
| 20260507210508 | 64 | 89 | 1.7 | 7.8 | 0.00 | 0.14 | 0.00 | 31 | 1004.2 |
| 20260507210031 | 63 | 263 | 1.7 | 7.8 | 0.00 | 0.14 | 0.00 | 34 | 1004.3 |
| 20260507205512 | 63 | 212 | 1.7 | 7.0 | 0.00 | 0.23 | 0.00 | 30 | 1004.2 |
| 20260507205011 | 64 | 220 | 2.6 | 11.3 | 0.00 | 0.23 | 0.00 | 31 | 1004.2 |
| 20260507204528 | 64 | 88 | 1.7 | 11.3 | 0.00 | 0.23 | 0.00 | 31 | 1004.0 |
| 20260507204009 | 64 | 219 | 3.5 | 11.3 | 0.00 | 0.23 | 0.00 | 30 | 1003.9 |
| 20260507203516 | 64 | 50 | 4.3 | 11.3 | 0.00 | 0.23 | 0.00 | 30 | 1004.0 |
| 20260507203027 | 64 | 0 | 0.9 | 8.7 | 0.00 | 0.23 | 0.00 | 31 | 1003.9 |
| 20260507202511 | 64 | 85 | 1.7 | 8.7 | 0.00 | 0.23 | 0.00 | 32 | 1004.0 |
| 20260507202014 | 64 | 196 | 1.7 | 8.7 | 0.00 | 0.23 | 0.00 | 31 | 1003.9 |
| 20260507201526 | 64 | 243 | 1.7 | 8.7 | 0.00 | 0.23 | 0.00 | 31 | 1004.1 |
| 20260507201012 | 64 | 270 | 1.7 | 7.8 | 0.00 | 0.23 | 0.00 | 31 | 1004.1 |
| 20260507200508 | 64 | 136 | 2.6 | 7.8 | 0.00 | 0.23 | 0.00 | 30 | 1004.0 |
| 20260507200027 | 64 | 75 | 1.7 | 13.9 | 0.00 | 0.23 | 0.00 | 32 | 1004.0 |
| 20260507195508 | 64 | 220 | 2.6 | 13.9 | 0.00 | 0.31 | 0.00 | 30 | 1004.2 |
| 20260507195014 | 64 | 119 | 2.6 | 10.4 | 0.00 | 0.31 | 0.00 | 30 | 1004.2 |
| 20260507194535 | 64 | 245 | 3.5 | 10.4 | 0.00 | 0.31 | 0.00 | 31 | 1004.3 |
| 20260507194009 | 63 | 215 | 1.7 | 12.2 | 0.00 | 0.31 | 0.00 | 32 | 1004.2 |
| 20260507193511 | 63 | 46 | 1.7 | 13.0 | 0.00 | 0.31 | 0.00 | 31 | 1004.2 |
| 20260507193025 | 63 | 150 | 3.5 | 13.0 | 0.00 | 0.31 | 0.00 | 30 | 1004.3 |
| 20260507192507 | 63 | 201 | 1.7 | 7.0 | 0.00 | 0.31 | 0.00 | 33 | 1004.1 |
| 20260507192010 | 64 | 247 | 1.7 | 7.0 | 0.00 | 0.31 | 0.00 | 32 | 1004.4 |
| 20260507191528 | 64 | 48 | 1.7 | 7.8 | 0.00 | 0.31 | 0.00 | 31 | 1004.5 |
| 20260507191018 | 64 | 74 | 2.6 | 11.3 | 0.00 | 0.31 | 0.00 | 31 | 1004.4 |
| 20260507190511 | 64 | 327 | 3.5 | 11.3 | 0.00 | 0.31 | 0.00 | 32 | 1004.5 |
| 20260507190040 | 64 | 159 | 3.5 | 11.3 | 0.00 | 0.31 | 0.00 | 31 | 1004.4 |
| 20260507185514 | 64 | 225 | 1.7 | 9.6 | 0.00 | 0.32 | 0.00 | 33 | 1004.4 |
| 20260507185013 | 64 | 220 | 1.7 | 7.8 | 0.00 | 0.32 | 0.00 | 33 | 1004.3 |
| 20260507184535 | 64 | 204 | 2.6 | 7.8 | 0.00 | 0.32 | 0.00 | 34 | 1004.4 |
| 20260507184010 | 63 | 219 | 2.6 | 7.0 | 0.00 | 0.32 | 0.00 | 35 | 1004.3 |
| 20260507183510 | 63 | 215 | 1.7 | 7.0 | 0.00 | 0.32 | 0.00 | 35 | 1004.4 |
| 20260507183029 | 63 | 84 | 2.6 | 7.0 | 0.00 | 0.32 | 0.00 | 35 | 1004.4 |
| 20260507182013 | 63 | 209 | 3.5 | 11.3 | 0.00 | 0.32 | 0.00 | 35 | 1004.6 |
| 20260507181528 | 63 | 234 | 2.6 | 7.8 | 0.00 | 0.32 | 0.00 | 39 | 1004.5 |
| 20260507181011 | 63 | 232 | 0.9 | 7.8 | 0.00 | 0.32 | 0.00 | 38 | 1004.4 |
| 20260507180509 | 63 | 200 | 1.7 | 13.9 | 0.00 | 0.32 | 0.00 | 41 | 1004.4 |
| 20260507180026 | 63 | 273 | 1.7 | 13.9 | 0.00 | 0.32 | 0.00 | 41 | 1004.4 |
| 20260507175508 | 63 | 210 | 2.6 | 13.9 | 0.00 | 0.32 | 0.00 | 42 | 1004.5 |
| 20260507175009 | 62 | 65 | 1.7 | 8.7 | 0.00 | 0.32 | 0.00 | 45 | 1004.5 |
| 20260507174533 | 62 | 103 | 1.7 | 8.7 | 0.00 | 0.32 | 0.00 | 47 | 1004.6 |
| 20260507174011 | 62 | 231 | 2.6 | 11.3 | 0.00 | 0.32 | 0.00 | 47 | 1004.6 |
| 20260507173513 | 62 | 306 | 3.5 | 11.3 | 0.00 | 0.32 | 0.00 | 49 | 1004.6 |
| 20260507173041 | 62 | 196 | 2.6 | 7.0 | 0.00 | 0.32 | 0.00 | 47 | 1004.7 |
| 20260507172511 | 62 | 104 | 1.7 | 7.0 | 0.00 | 0.32 | 0.00 | 46 | 1004.6 |
| 20260507172013 | 61 | 54 | 2.6 | 7.0 | 0.00 | 0.32 | 0.00 | 49 | 1004.7 |
| 20260507171526 | 62 | 217 | 1.7 | 10.4 | 0.00 | 0.32 | 0.00 | 45 | 1004.7 |
| 20260507171007 | 62 | 112 | 1.7 | 10.4 | 0.00 | 0.32 | 0.00 | 47 | 1004.8 |
| 20260507170026 | 61 | 209 | 1.7 | 7.8 | 0.00 | 0.32 | 0.00 | 47 | 1004.8 |
| 20260507165508 | 61 | 319 | 3.5 | 7.8 | 0.00 | 0.32 | 0.00 | 46 | 1004.8 |
| 20260507165008 | 61 | 255 | 0.9 | 8.7 | 0.00 | 0.32 | 0.00 | 49 | 1004.9 |
| 20260507164535 | 62 | 208 | 3.5 | 8.7 | 0.00 | 0.32 | 0.00 | 46 | 1004.9 |
| 20260507164011 | 62 | 261 | 1.7 | 7.0 | 0.00 | 0.32 | 0.00 | 46 | 1004.9 |
| 20260507163509 | 61 | 196 | 1.7 | 7.0 | 0.00 | 0.32 | 0.00 | 49 | 1005.0 |
| 20260507163026 | 61 | 217 | 2.6 | 7.0 | 0.00 | 0.32 | 0.00 | 49 | 1005.1 |
| 20260507162511 | 61 | 188 | 2.6 | 7.8 | 0.00 | 0.32 | 0.00 | 51 | 1005.1 |
| 20260507162013 | 60 | 219 | 0.9 | 7.8 | 0.00 | 0.32 | 0.00 | 51 | 1005.0 |
| 20260507161533 | 60 | 225 | 1.7 | 7.0 | 0.00 | 0.32 | 0.00 | 49 | 1005.1 |
| 20260507161011 | 60 | 38 | 0.9 | 7.0 | 0.00 | 0.32 | 0.00 | 52 | 1005.1 |
| 20260507160512 | 60 | 98 | 1.7 | 10.4 | 0.00 | 0.32 | 0.00 | 49 | 1005.2 |
| 20260507160029 | 61 | 214 | 2.6 | 10.4 | 0.00 | 0.32 | 0.00 | 49 | 1005.3 |
| 20260507155009 | 61 | 214 | 3.5 | 9.6 | 0.00 | 0.32 | 0.00 | 49 | 1005.6 |
| 20260507154526 | 60 | 81 | 2.6 | 9.6 | 0.00 | 0.32 | 0.00 | 49 | 1005.6 |
| 20260507154010 | 61 | 173 | 0.9 | 7.0 | 0.00 | 0.32 | 0.00 | 49 | 1005.5 |
| 20260507153507 | 61 | 331 | 1.7 | 7.8 | 0.00 | 0.32 | 0.00 | 46 | 1005.7 |
| 20260507153034 | 61 | 246 | 2.6 | 7.8 | 0.00 | 0.32 | 0.00 | 45 | 1005.6 |
| 20260507152515 | 61 | 109 | 1.7 | 7.0 | 0.00 | 0.32 | 0.00 | 47 | 1005.7 |
| 20260507152012 | 61 | 205 | 1.7 | 7.0 | 0.00 | 0.32 | 0.00 | 51 | 1005.8 |
| 20260507151531 | 61 | 207 | 1.7 | 8.7 | 0.00 | 0.32 | 0.00 | 52 | 1005.7 |
| 20260507151011 | 61 | 184 | 1.7 | 8.7 | 0.00 | 0.32 | 0.00 | 50 | 1005.8 |
| 20260507150511 | 60 | 223 | 0.9 | 7.0 | 0.00 | 0.32 | 0.00 | 51 | 1005.7 |
| 20260507150032 | 61 | 170 | 1.7 | 7.0 | 0.00 | 0.32 | 0.00 | 49 | 1005.8 |
| 20260507145512 | 61 | 292 | 0.9 | 5.2 | 0.00 | 0.32 | 0.00 | 49 | 1005.6 |
| 20260507145011 | 61 | 0 | 1.7 | 11.3 | 0.00 | 0.32 | 0.00 | 50 | 1005.7 |
| 20260507144534 | 60 | 80 | 1.7 | 11.3 | 0.00 | 0.32 | 0.00 | 50 | 1005.8 |
| 20260507144010 | 60 | 240 | 2.6 | 7.8 | 0.00 | 0.32 | 0.00 | 48 | 1005.8 |
| 20260507143510 | 60 | 271 | 1.7 | 5.2 | 0.00 | 0.32 | 0.00 | 50 | 1005.7 |
| 20260507143028 | 59 | 15 | 0.9 | 7.8 | 0.00 | 0.32 | 0.00 | 51 | 1005.7 |
| 20260507142508 | 59 | 219 | 1.7 | 7.8 | 0.00 | 0.32 | 0.00 | 50 | 1005.8 |
| 20260507142013 | 59 | 295 | 2.6 | 7.8 | 0.00 | 0.32 | 0.00 | 52 | 1005.8 |
| 20260507141526 | 59 | 132 | 0.9 | 6.1 | 0.00 | 0.32 | 0.00 | 53 | 1005.8 |
| 20260507141015 | 59 | 211 | 0.9 | 4.3 | 0.00 | 0.32 | 0.00 | 55 | 1005.8 |
| 20260507140509 | 58 | 109 | 0.9 | 4.3 | 0.00 | 0.32 | 0.00 | 58 | 1005.9 |
| 20260507140027 | 57 | 194 | 0.9 | 7.0 | 0.00 | 0.32 | 0.00 | 60 | 1006.1 |
| 20260507135509 | 57 | 203 | 1.7 | 7.0 | 0.00 | 0.32 | 0.00 | 56 | 1006.1 |
| 20260507135008 | 57 | 250 | 1.7 | 7.0 | 0.00 | 0.32 | 0.00 | 58 | 1006.1 |
| 20260507134527 | 58 | 219 | 1.7 | 4.3 | 0.00 | 0.32 | 0.00 | 59 | 1006.1 |
| 20260507134008 | 58 | 233 | 1.7 | 5.2 | 0.00 | 0.32 | 0.00 | 60 | 1006.4 |
| 20260507133508 | 58 | 238 | 0.9 | 5.2 | 0.00 | 0.32 | 0.00 | 62 | 1006.4 |
| 20260507133028 | 57 | 185 | 1.7 | 6.1 | 0.00 | 0.32 | 0.00 | 62 | 1006.3 |
| 20260507132510 | 57 | 24 | 1.7 | 6.1 | 0.00 | 0.32 | 0.00 | 61 | 1006.4 |
| 20260507132009 | 57 | 0 | 0.9 | 4.3 | 0.00 | 0.32 | 0.00 | 61 | 1006.4 |
| 20260507131527 | 56 | 0 | 0.9 | 4.3 | 0.00 | 0.32 | 0.00 | 63 | 1006.5 |
| 20260507131013 | 56 | 222 | 1.7 | 4.3 | 0.00 | 0.32 | 0.00 | 67 | 1006.6 |
| 20260507130510 | 55 | 109 | 0.9 | 4.3 | 0.00 | 0.32 | 0.00 | 69 | 1006.5 |
| 20260507130031 | 55 | 202 | 2.6 | 4.3 | 0.00 | 0.32 | 0.00 | 67 | 1006.6 |
| 20260507125612 | 55 | 131 | 0.9 | 6.1 | 0.00 | 0.32 | 0.00 | 68 | 1006.6 |
| 20260507125016 | 55 | 331 | 1.7 | 6.1 | 0.00 | 0.32 | 0.00 | 70 | 1006.6 |
| 20260507124536 | 55 | 219 | 2.6 | 5.2 | 0.00 | 0.32 | 0.00 | 68 | 1006.6 |
| 20260507124013 | 55 | 38 | 1.7 | 5.2 | 0.00 | 0.32 | 0.00 | 70 | 1006.5 |
| 20260507123510 | 55 | 49 | 0.9 | 4.3 | 0.00 | 0.32 | 0.00 | 69 | 1006.6 |
| 20260507123028 | 55 | 57 | 0.9 | 4.3 | 0.00 | 0.32 | 0.00 | 70 | 1006.7 |
| 20260507122508 | 55 | 184 | 0.9 | 4.3 | 0.00 | 0.32 | 0.00 | 69 | 1006.6 |
| 20260507122011 | 54 | 127 | 0.9 | 4.3 | 0.00 | 0.32 | 0.00 | 70 | 1006.7 |
| 20260507121526 | 54 | 65 | 0.9 | 6.1 | 0.00 | 0.32 | 0.00 | 70 | 1006.8 |
| 20260507121009 | 54 | 94 | 0.0 | 6.1 | 0.00 | 0.32 | 0.00 | 74 | 1006.7 |
| 20260507120511 | 53 | 198 | 0.9 | 3.5 | 0.00 | 0.32 | 0.00 | 75 | 1006.7 |
| 20260507120027 | 53 | 80 | 0.9 | 3.5 | 0.00 | 0.32 | 0.00 | 79 | 1006.7 |
| 20260507115511 | 52 | 213 | 0.0 | 1.7 | 0.00 | 0.32 | 0.00 | 83 | 1006.7 |
| 20260507115015 | 51 | 0 | 0.0 | 3.5 | 0.00 | 0.32 | 0.00 | 84 | 1006.7 |
| 20260507114544 | 50 | 70 | 0.9 | 3.5 | 0.00 | 0.32 | 0.00 | 86 | 1006.8 |
| 20260507114014 | 49 | 0 | 0.0 | 3.5 | 0.00 | 0.32 | 0.00 | 88 | 1006.8 |
| 20260507113510 | 48 | 242 | 0.9 | 3.5 | 0.00 | 0.32 | 0.00 | 87 | 1007.0 |
| 20260507113053 | 48 | 161 | 0.0 | 2.6 | 0.00 | 0.32 | 0.00 | 88 | 1006.7 |
| 20260507112509 | 48 | 181 | 0.0 | 2.6 | 0.00 | 0.32 | 0.00 | 89 | 1006.6 |
| 20260507112010 | 48 | 46 | 0.0 | 2.6 | 0.00 | 0.32 | 0.00 | 90 | 1006.6 |
| 20260507111537 | 48 | 0 | 0.0 | 0.9 | 0.00 | 0.32 | 0.00 | 90 | 1006.5 |
| 20260507111008 | 48 | 0 | 0.0 | 1.7 | 0.00 | 0.32 | 0.00 | 90 | 1006.6 |
| 20260507110509 | 48 | 0 | 0.0 | 1.7 | 0.00 | 0.32 | 0.00 | 90 | 1006.7 |
| 20260507103027 | 47 | 0 | 0.0 | 1.7 | 0.00 | 0.32 | 0.00 | 90 | 1006.4 |
| 20260507101008 | 48 | 310 | 0.0 | 1.7 | 0.00 | 0.32 | 0.00 | 91 | 1006.8 |
| 20260507100508 | 48 | 0 | 0.0 | 0.9 | 0.00 | 0.32 | 0.00 | 92 | 1006.8 |
| 20260507095507 | 48 | 0 | 0.0 | 0.9 | 0.00 | 0.32 | 0.00 | 92 | 1006.6 |
| 20260507095010 | 48 | 0 | 0.0 | 0.9 | 0.00 | 0.32 | 0.00 | 92 | 1006.5 |
| 20260507094008 | 48 | 0 | 0.0 | 0.9 | 0.00 | 0.32 | 0.00 | 91 | 1006.8 |
| 20260507093508 | 48 | 0 | 0.0 | 0.9 | 0.00 | 0.32 | 0.00 | 91 | 1006.9 |
| 20260507091527 | 48 | 0 | 0.0 | 0.9 | 0.00 | 0.32 | 0.00 | 90 | 1006.7 |
| 20260507090512 | 48 | 0 | 0.0 | 0.9 | 0.00 | 0.32 | 0.00 | 89 | 1006.0 |
| 20260507085508 | 48 | 0 | 0.0 | 2.6 | 0.00 | 0.32 | 0.00 | 89 | 1006.1 |
| 20260507084009 | 49 | 45 | 0.0 | 4.3 | 0.00 | 0.32 | 0.00 | 87 | 1005.8 |
| 20260507083507 | 49 | 0 | 0.0 | 4.3 | 0.00 | 0.32 | 0.00 | 87 | 1005.5 |
| 20260507083028 | 49 | 204 | 0.9 | 3.5 | 0.00 | 0.32 | 0.00 | 87 | 1005.7 |
| 20260507082510 | 49 | 0 | 0.9 | 3.5 | 0.00 | 0.32 | 0.00 | 87 | 1006.0 |
| 20260507081534 | 49 | 261 | 0.9 | 2.6 | 0.00 | 0.32 | 0.00 | 87 | 1005.9 |
| 20260507081008 | 49 | 80 | 0.0 | 3.5 | 0.00 | 0.32 | 0.00 | 86 | 1005.8 |
| 20260507080513 | 49 | 75 | 0.9 | 4.3 | 0.00 | 0.32 | 0.00 | 86 | 1005.6 |
| 20260507080028 | 49 | 176 | 0.9 | 4.3 | 0.00 | 0.32 | 0.00 | 87 | 1005.6 |
| 20260507075508 | 49 | 112 | 0.9 | 4.3 | 0.00 | 0.32 | 0.00 | 86 | 1005.4 |
| 20260507075013 | 49 | 122 | 0.9 | 4.3 | 0.00 | 0.32 | 0.00 | 86 | 1005.5 |
| 20260507074528 | 49 | 123 | 0.9 | 5.2 | 0.00 | 0.32 | 0.00 | 87 | 1005.5 |
| 20260507074009 | 50 | 202 | 0.0 | 5.2 | 0.00 | 0.32 | 0.00 | 87 | 1005.3 |
| 20260507073512 | 50 | 164 | 0.9 | 4.3 | 0.00 | 0.32 | 0.00 | 88 | 1005.1 |
| 20260507073029 | 50 | 0 | 0.9 | 2.6 | 0.00 | 0.32 | 0.00 | 89 | 1005.4 |
| 20260507072510 | 50 | 0 | 0.0 | 4.3 | 0.00 | 0.32 | 0.00 | 89 | 1005.4 |
| 20260507072008 | 50 | 165 | 0.9 | 4.3 | 0.00 | 0.32 | 0.00 | 88 | 1005.3 |
| 20260507071527 | 50 | 178 | 0.0 | 6.1 | 0.00 | 0.32 | 0.00 | 89 | 1005.5 |
| 20260507071009 | 50 | 319 | 1.7 | 6.1 | 0.00 | 0.32 | 0.00 | 89 | 1005.4 |
| 20260507070511 | 50 | 243 | 0.0 | 3.5 | 0.00 | 0.32 | 0.00 | 89 | 1005.2 |
| 20260507070028 | 50 | 0 | 0.9 | 3.5 | 0.00 | 0.32 | 0.00 | 89 | 1004.7 |
| 20260507065512 | 50 | 0 | 0.0 | 3.5 | 0.00 | 0.32 | 0.00 | 88 | 1004.8 |
| 20260507065012 | 50 | 296 | 0.9 | 7.0 | 0.00 | 0.32 | 0.00 | 89 | 1004.9 |
| 20260507064526 | 50 | 217 | 1.7 | 7.0 | 0.00 | 0.32 | 0.00 | 88 | 1004.9 |
| 20260507064011 | 50 | 303 | 1.7 | 5.2 | 0.00 | 0.32 | 0.00 | 89 | 1004.6 |
| 20260507063514 | 50 | 270 | 0.9 | 5.2 | 0.00 | 0.32 | 0.00 | 89 | 1004.8 |
| 20260507063028 | 50 | 194 | 0.0 | 4.3 | 0.00 | 0.32 | 0.00 | 90 | 1005.1 |
| 20260507062511 | 50 | 221 | 0.9 | 2.6 | 0.00 | 0.32 | 0.00 | 90 | 1005.2 |
| 20260507062010 | 51 | 251 | 0.9 | 2.6 | 0.00 | 0.32 | 0.00 | 90 | 1005.1 |
| 20260507061529 | 51 | 0 | 0.0 | 3.5 | 0.00 | 0.32 | 0.00 | 90 | 1005.0 |
| 20260507061009 | 51 | 0 | 0.0 | 4.3 | 0.00 | 0.32 | 0.00 | 90 | 1004.8 |
| 20260507060510 | 51 | 255 | 1.7 | 4.3 | 0.00 | 0.32 | 0.00 | 89 | 1004.7 |
| 20260507060026 | 51 | 109 | 0.9 | 3.5 | 0.00 | 0.32 | 0.00 | 89 | 1004.7 |
| 20260507055512 | 51 | 69 | 0.0 | 3.5 | 0.00 | 0.32 | 0.00 | 90 | 1004.7 |
| 20260507055011 | 51 | 213 | 0.9 | 4.3 | 0.00 | 0.32 | 0.00 | 90 | 1004.5 |
| 20260507054528 | 51 | 257 | 1.7 | 4.3 | 0.00 | 0.32 | 0.00 | 90 | 1004.8 |
| 20260507054011 | 51 | 313 | 1.7 | 4.3 | 0.00 | 0.32 | 0.00 | 90 | 1004.8 |
| 20260507053511 | 52 | 229 | 0.9 | 3.5 | 0.00 | 0.32 | 0.00 | 90 | 1004.6 |
| 20260507053028 | 52 | 228 | 0.9 | 2.6 | 0.00 | 0.32 | 0.00 | 90 | 1004.3 |
| 20260507052511 | 52 | 277 | 0.9 | 5.2 | 0.00 | 0.32 | 0.00 | 90 | 1004.3 |
| 20260507052010 | 52 | 344 | 0.0 | 5.2 | 0.00 | 0.32 | 0.00 | 90 | 1004.6 |
| 20260507051528 | 52 | 0 | 0.9 | 5.2 | 0.00 | 0.32 | 0.00 | 90 | 1004.6 |
| 20260507051010 | 52 | 255 | 0.9 | 4.3 | 0.00 | 0.32 | 0.00 | 91 | 1004.7 |
| 20260507050508 | 52 | 0 | 0.0 | 4.3 | 0.00 | 0.32 | 0.00 | 91 | 1004.5 |
| 20260507050030 | 53 | 0 | 0.9 | 4.3 | 0.00 | 0.32 | 0.00 | 91 | 1004.5 |
| 20260507045509 | 53 | 269 | 0.9 | 5.2 | 0.00 | 0.32 | 0.00 | 91 | 1004.4 |
| 20260507045012 | 53 | 192 | 1.7 | 5.2 | 0.00 | 0.32 | 0.00 | 91 | 1004.3 |
| 20260507044528 | 53 | 121 | 0.9 | 3.5 | 0.00 | 0.32 | 0.00 | 91 | 1004.4 |
| 20260507044011 | 53 | 242 | 0.0 | 3.5 | 0.00 | 0.32 | 0.00 | 91 | 1004.5 |
| 20260507043511 | 53 | 278 | 0.9 | 4.3 | 0.00 | 0.32 | 0.00 | 92 | 1004.4 |
| 20260507043029 | 53 | 229 | 0.9 | 4.3 | 0.00 | 0.32 | 0.00 | 92 | 1004.3 |
| 20260507042512 | 53 | 275 | 0.9 | 6.1 | 0.00 | 0.32 | 0.00 | 92 | 1004.2 |
| 20260507042010 | 54 | 256 | 0.0 | 6.1 | 0.01 | 0.32 | 0.00 | 92 | 1004.2 |
| 20260507041528 | 54 | 360 | 1.7 | 6.1 | 0.01 | 0.32 | 0.00 | 92 | 1004.2 |
| 20260507041010 | 54 | 82 | 1.7 | 5.2 | 0.01 | 0.32 | 0.00 | 93 | 1004.0 |
| 20260507040510 | 54 | 217 | 0.0 | 1.7 | 0.01 | 0.32 | 0.00 | 94 | 1004.0 |
| 20260507040026 | 55 | 0 | 0.0 | 5.2 | 0.01 | 0.32 | 0.00 | 94 | 1004.1 |
| 20260507035512 | 55 | 65 | 0.9 | 6.1 | 0.01 | 0.32 | 0.32 | 94 | 1003.9 |
| 20260507035014 | 55 | 0 | 1.7 | 6.1 | 0.01 | 0.32 | 0.32 | 95 | 1004.1 |
| 20260507034534 | 55 | 244 | 0.9 | 8.7 | 0.01 | 0.32 | 0.32 | 96 | 1004.0 |
| 20260507034009 | 55 | 236 | 1.7 | 8.7 | 0.01 | 0.32 | 0.32 | 96 | 1004.4 |
| 20260507033511 | 55 | 234 | 1.7 | 8.7 | 0.01 | 0.32 | 0.32 | 97 | 1004.2 |
| 20260507033026 | 54 | 195 | 1.7 | 7.0 | 0.01 | 0.32 | 0.32 | 96 | 1004.2 |
| 20260507032516 | 53 | 214 | 0.0 | 1.7 | 0.01 | 0.32 | 0.32 | 96 | 1004.1 |
| 20260507032015 | 53 | 0 | 0.0 | 1.7 | 0.00 | 0.31 | 0.31 | 96 | 1003.9 |
| 20260507031528 | 53 | 0 | 0.0 | 1.7 | 0.00 | 0.31 | 0.31 | 95 | 1003.8 |
| 20260507031009 | 53 | 205 | 0.0 | 1.7 | 0.00 | 0.31 | 0.31 | 96 | 1003.7 |
| 20260507030517 | 52 | 205 | 0.0 | 1.7 | 0.00 | 0.31 | 0.31 | 95 | 1003.7 |